| time (UTC) | temp C | wind direction | speed KPH | gust KPH | rain 1hr cm | rain 24hr cm | rain mn cm | humidity % | barometer mb |
| 20260905065003 | 21 | 351 | 0.0 | 0.0 | 0.00 | 0.51 | 0.00 | 96 | 1012.2 |
| 20260905064515 | 21 | 351 | 0.0 | 0.0 | 0.00 | 0.51 | 0.00 | 96 | 1012.2 |
| 20260905064015 | 21 | 351 | 0.0 | 0.0 | 0.00 | 0.51 | 0.00 | 96 | 1012.2 |
| 20260905063510 | 21 | 351 | 0.0 | 0.0 | 0.00 | 0.51 | 0.00 | 96 | 1012.1 |
| 20260905063014 | 21 | 351 | 0.0 | 0.0 | 0.00 | 0.51 | 0.00 | 96 | 1012.1 |
| 20260905062513 | 21 | 351 | 0.0 | 0.0 | 0.00 | 0.51 | 0.00 | 95 | 1012.2 |
| 20260905062009 | 21 | 351 | 0.0 | 0.0 | 0.00 | 0.51 | 0.00 | 95 | 1012.2 |
| 20260905061512 | 21 | 351 | 0.0 | 0.0 | 0.00 | 0.51 | 0.00 | 95 | 1012.4 |
| 20260905061015 | 21 | 351 | 0.0 | 0.0 | 0.00 | 0.51 | 0.00 | 96 | 1012.5 |
| 20260905060504 | 21 | 351 | 0.0 | 0.0 | 0.00 | 0.51 | 0.00 | 95 | 1012.5 |
| 20260905060014 | 21 | 351 | 0.0 | 0.0 | 0.00 | 0.51 | 0.00 | 95 | 1012.6 |
| 20260905055516 | 21 | 351 | 0.0 | 0.0 | 0.00 | 0.51 | 0.00 | 95 | 1012.7 |
| 20260905055007 | 21 | 351 | 0.0 | 0.0 | 0.00 | 0.51 | 0.00 | 95 | 1012.7 |
| 20260905054518 | 21 | 351 | 0.0 | 0.0 | 0.00 | 0.51 | 0.00 | 95 | 1012.8 |
| 20260905054013 | 21 | 351 | 0.0 | 0.0 | 0.00 | 0.51 | 0.00 | 95 | 1012.8 |
| 20260905053506 | 21 | 351 | 0.0 | 0.0 | 0.00 | 0.51 | 0.00 | 95 | 1012.7 |
| 20260905053021 | 21 | 351 | 0.0 | 0.0 | 0.00 | 0.51 | 0.00 | 95 | 1012.8 |
| 20260905052514 | 21 | 351 | 0.0 | 0.0 | 0.00 | 0.51 | 0.00 | 95 | 1013.0 |
| 20260905052006 | 21 | 351 | 0.0 | 0.0 | 0.00 | 0.51 | 0.00 | 95 | 1013.2 |
| 20260905051523 | 21 | 351 | 0.0 | 0.0 | 0.00 | 0.51 | 0.00 | 95 | 1013.2 |
| 20260905051013 | 21 | 351 | 0.0 | 0.0 | 0.00 | 0.51 | 0.00 | 95 | 1013.3 |
| 20260905050506 | 21 | 351 | 0.0 | 0.0 | 0.00 | 0.51 | 0.00 | 95 | 1013.4 |
| 20260905050022 | 21 | 351 | 0.0 | 0.0 | 0.00 | 0.51 | 0.00 | 95 | 1013.5 |
| 20260905045513 | 21 | 351 | 0.0 | 0.0 | 0.00 | 0.51 | 0.00 | 95 | 1013.6 |
| 20260905045011 | 21 | 351 | 0.0 | 0.0 | 0.00 | 0.51 | 0.00 | 95 | 1013.7 |
| 20260905044526 | 21 | 351 | 0.0 | 0.0 | 0.00 | 0.51 | 0.00 | 95 | 1013.7 |
| 20260905044019 | 21 | 351 | 0.0 | 0.0 | 0.00 | 0.51 | 0.00 | 95 | 1013.8 |
| 20260905043507 | 21 | 351 | 0.0 | 0.0 | 0.00 | 0.51 | 0.00 | 95 | 1013.8 |
| 20260905043023 | 21 | 351 | 0.0 | 0.0 | 0.00 | 0.51 | 0.00 | 95 | 1013.9 |
| 20260905042518 | 21 | 351 | 0.0 | 0.0 | 0.00 | 0.51 | 0.00 | 95 | 1013.9 |
| 20260905042010 | 22 | 351 | 0.0 | 0.0 | 0.00 | 0.51 | 0.00 | 95 | 1013.9 |
| 20260905041526 | 22 | 351 | 0.0 | 0.0 | 0.00 | 0.51 | 0.00 | 95 | 1013.9 |
| 20260905041018 | 22 | 351 | 0.0 | 0.0 | 0.00 | 0.51 | 0.00 | 95 | 1013.9 |
| 20260905040509 | 22 | 351 | 0.0 | 0.0 | 0.00 | 0.51 | 0.00 | 95 | 1014.1 |
| 20260905040030 | 22 | 351 | 0.0 | 0.0 | 0.00 | 0.51 | 0.00 | 95 | 1014.0 |
| 20260905035519 | 22 | 351 | 0.0 | 0.0 | 0.00 | 0.51 | 0.51 | 95 | 1014.1 |
| 20260905035011 | 22 | 351 | 0.0 | 0.0 | 0.00 | 0.51 | 0.51 | 95 | 1014.0 |
| 20260905034529 | 22 | 351 | 0.0 | 0.0 | 0.00 | 0.51 | 0.51 | 95 | 1014.0 |
| 20260905034015 | 22 | 351 | 0.0 | 0.0 | 0.00 | 0.51 | 0.51 | 95 | 1014.1 |
| 20260905033508 | 22 | 351 | 0.0 | 0.0 | 0.00 | 0.51 | 0.51 | 95 | 1014.1 |
| 20260905033023 | 22 | 351 | 0.0 | 3.2 | 0.00 | 0.51 | 0.51 | 95 | 1014.1 |
| 20260905032518 | 22 | 351 | 0.0 | 3.2 | 0.00 | 0.51 | 0.51 | 95 | 1014.1 |
| 20260905032010 | 22 | 351 | 0.0 | 3.2 | 0.00 | 0.51 | 0.51 | 95 | 1014.1 |
| 20260905031524 | 22 | 46 | 0.0 | 3.2 | 0.00 | 0.51 | 0.51 | 95 | 1014.0 |
| 20260905031016 | 22 | 67 | 0.0 | 3.2 | 0.00 | 0.51 | 0.51 | 95 | 1014.0 |
| 20260905030511 | 22 | 63 | 0.0 | 6.4 | 0.00 | 0.51 | 0.51 | 95 | 1013.8 |
| 20260905030029 | 22 | 280 | 0.0 | 6.4 | 0.00 | 0.51 | 0.51 | 95 | 1013.7 |
| 20260905025518 | 22 | 67 | 0.0 | 3.2 | 0.00 | 0.51 | 0.51 | 95 | 1013.6 |
| 20260905025013 | 22 | 187 | 0.0 | 3.2 | 0.00 | 0.51 | 0.51 | 95 | 1013.6 |
| 20260905024527 | 22 | 73 | 0.0 | 0.0 | 0.00 | 0.51 | 0.51 | 96 | 1013.8 |
| 20260905024020 | 22 | 96 | 0.0 | 0.0 | 0.00 | 0.51 | 0.51 | 95 | 1013.9 |
| 20260905023511 | 22 | 11 | 0.0 | 0.0 | 0.00 | 0.51 | 0.51 | 95 | 1014.0 |
| 20260905023034 | 22 | 11 | 0.0 | 0.0 | 0.00 | 0.51 | 0.51 | 95 | 1014.1 |
| 20260905022512 | 22 | 11 | 0.0 | 0.0 | 0.00 | 0.51 | 0.51 | 95 | 1014.1 |
| 20260905022015 | 22 | 345 | 0.0 | 0.0 | 0.00 | 0.51 | 0.51 | 95 | 1014.4 |
| 20260905021535 | 22 | 345 | 0.0 | 0.0 | 0.00 | 0.51 | 0.51 | 95 | 1014.3 |
| 20260905021010 | 22 | 345 | 0.0 | 0.0 | 0.00 | 0.51 | 0.51 | 95 | 1014.3 |
| 20260905020513 | 22 | 345 | 0.0 | 0.0 | 0.00 | 0.51 | 0.51 | 95 | 1014.2 |
| 20260905020030 | 22 | 345 | 0.0 | 0.0 | 0.00 | 0.51 | 0.51 | 95 | 1014.3 |
| 20260905015507 | 22 | 61 | 0.0 | 0.0 | 0.00 | 0.51 | 0.51 | 95 | 1014.2 |
| 20260905015013 | 22 | 346 | 0.0 | 0.0 | 0.00 | 0.51 | 0.51 | 95 | 1014.1 |
| 20260905014535 | 22 | 306 | 0.0 | 0.0 | 0.00 | 0.51 | 0.51 | 95 | 1014.2 |
| 20260905014012 | 22 | 306 | 0.0 | 0.0 | 0.00 | 0.51 | 0.51 | 95 | 1014.2 |
| 20260905013519 | 22 | 177 | 0.0 | 0.0 | 0.00 | 0.51 | 0.51 | 95 | 1014.2 |
| 20260905013030 | 22 | 177 | 0.0 | 0.0 | 0.00 | 0.51 | 0.51 | 95 | 1014.1 |
| 20260905012511 | 22 | 177 | 0.0 | 0.0 | 0.00 | 0.51 | 0.51 | 95 | 1014.0 |
| 20260905012017 | 22 | 177 | 0.0 | 0.0 | 0.00 | 0.51 | 0.51 | 95 | 1014.0 |
| 20260905011531 | 22 | 177 | 0.0 | 0.0 | 0.00 | 0.51 | 0.51 | 95 | 1013.9 |
| 20260905011010 | 22 | 177 | 0.0 | 0.0 | 0.00 | 0.51 | 0.51 | 95 | 1013.6 |
| 20260905010516 | 22 | 177 | 0.0 | 0.0 | 0.00 | 0.51 | 0.51 | 95 | 1013.3 |
| 20260905010033 | 22 | 177 | 0.0 | 0.0 | 0.00 | 0.51 | 0.51 | 95 | 1013.1 |
| 20260905005509 | 22 | 177 | 0.0 | 0.0 | 0.00 | 0.51 | 0.51 | 95 | 1013.0 |
| 20260905005016 | 22 | 177 | 0.0 | 0.0 | 0.00 | 0.51 | 0.51 | 95 | 1013.0 |
| 20260905004510 | 22 | 177 | 0.0 | 3.2 | 0.00 | 0.51 | 0.51 | 95 | 1013.0 |
| 20260905004012 | 22 | 177 | 0.0 | 3.2 | 0.00 | 0.51 | 0.51 | 95 | 1012.8 |
| 20260905003503 | 22 | 57 | 0.0 | 1.6 | 0.00 | 0.51 | 0.51 | 94 | 1013.1 |
| 20260905003016 | 22 | 57 | 0.0 | 1.6 | 0.00 | 0.51 | 0.51 | 94 | 1013.3 |
| 20260905002510 | 22 | 57 | 0.0 | 3.2 | 0.03 | 0.51 | 0.51 | 94 | 1012.7 |
| 20260905002003 | 22 | 57 | 0.0 | 3.2 | 0.03 | 0.51 | 0.51 | 94 | 1012.7 |
| 20260905001509 | 22 | 344 | 0.0 | 1.6 | 0.03 | 0.51 | 0.51 | 94 | 1012.6 |
| 20260905001014 | 22 | 344 | 0.0 | 1.6 | 0.03 | 0.51 | 0.51 | 94 | 1012.0 |
| 20260905000503 | 22 | 344 | 0.0 | 1.6 | 0.03 | 0.51 | 0.51 | 94 | 1011.9 |
| 20260905000026 | 22 | 344 | 0.0 | 3.2 | 0.05 | 0.51 | 0.51 | 94 | 1011.9 |
| 20260904235518 | 22 | 344 | 0.0 | 4.8 | 0.28 | 0.51 | 0.51 | 94 | 1012.2 |
| 20260904235003 | 22 | 360 | 0.0 | 4.8 | 0.28 | 0.51 | 0.51 | 93 | 1012.3 |
| 20260904234541 | 22 | 345 | 1.6 | 11.3 | 0.28 | 0.51 | 0.51 | 93 | 1012.2 |
| 20260904234019 | 22 | 138 | 0.0 | 11.3 | 0.28 | 0.51 | 0.51 | 93 | 1011.9 |
| 20260904233503 | 22 | 176 | 3.2 | 11.3 | 0.28 | 0.51 | 0.51 | 93 | 1012.2 |
| 20260904233015 | 22 | 149 | 0.0 | 8.0 | 0.28 | 0.51 | 0.51 | 93 | 1012.9 |
| 20260904232514 | 22 | 153 | 3.2 | 8.0 | 0.25 | 0.48 | 0.48 | 93 | 1013.4 |
| 20260904232006 | 22 | 166 | 0.0 | 3.2 | 0.25 | 0.48 | 0.48 | 93 | 1014.1 |
| 20260904231516 | 23 | 171 | 0.0 | 4.8 | 0.25 | 0.48 | 0.48 | 93 | 1014.4 |
| 20260904231014 | 23 | 176 | 0.0 | 4.8 | 0.25 | 0.48 | 0.48 | 93 | 1015.0 |
| 20260904230504 | 23 | 171 | 0.0 | 4.8 | 0.25 | 0.48 | 0.48 | 93 | 1015.2 |
| 20260904230021 | 23 | 202 | 0.0 | 3.2 | 0.23 | 0.46 | 0.46 | 93 | 1015.2 |
| 20260904225520 | 23 | 157 | 0.0 | 0.0 | 0.15 | 0.23 | 0.23 | 93 | 1014.7 |
| 20260904225003 | 23 | 157 | 0.0 | 0.0 | 0.23 | 0.23 | 0.23 | 93 | 1014.4 |
| 20260904224525 | 23 | 157 | 0.0 | 0.0 | 0.23 | 0.23 | 0.23 | 93 | 1014.2 |
| 20260904224016 | 23 | 157 | 0.0 | 0.0 | 0.23 | 0.23 | 0.23 | 93 | 1014.0 |
| 20260904223506 | 23 | 223 | 0.0 | 0.0 | 0.23 | 0.23 | 0.23 | 92 | 1014.8 |
| 20260904223017 | 23 | 269 | 0.0 | 0.0 | 0.23 | 0.23 | 0.23 | 91 | 1014.9 |
| 20260904222516 | 23 | 338 | 0.0 | 1.6 | 0.23 | 0.23 | 0.23 | 90 | 1014.6 |
| 20260904222006 | 23 | 134 | 0.0 | 9.7 | 0.23 | 0.23 | 0.23 | 90 | 1014.1 |
| 20260904221521 | 23 | 42 | 0.0 | 9.7 | 0.23 | 0.23 | 0.23 | 89 | 1014.3 |
| 20260904221014 | 23 | 38 | 1.6 | 14.5 | 0.23 | 0.23 | 0.23 | 88 | 1014.3 |
| 20260904220506 | 24 | 205 | 0.0 | 14.5 | 0.23 | 0.23 | 0.23 | 86 | 1014.4 |
| 20260904220030 | 25 | 348 | 4.8 | 22.5 | 0.23 | 0.23 | 0.23 | 84 | 1014.1 |
| 20260904215516 | 26 | 317 | 3.2 | 22.5 | 0.08 | 0.08 | 0.08 | 80 | 1014.2 |
| 20260904215007 | 26 | 278 | 8.0 | 22.5 | 0.00 | 0.00 | 0.00 | 74 | 1015.1 |
| 20260904214534 | 27 | 309 | 4.8 | 17.7 | 0.00 | 0.00 | 0.00 | 70 | 1014.1 |
| 20260904214016 | 28 | 312 | 4.8 | 22.5 | 0.00 | 0.00 | 0.00 | 66 | 1013.4 |
| 20260904213507 | 29 | 5 | 6.4 | 22.5 | 0.00 | 0.00 | 0.00 | 65 | 1013.2 |
| 20260904213024 | 30 | 335 | 8.0 | 24.1 | 0.00 | 0.00 | 0.00 | 64 | 1012.7 |
| 20260904212519 | 31 | 12 | 8.0 | 24.1 | 0.00 | 0.00 | 0.00 | 64 | 1012.7 |
| 20260904212007 | 32 | 344 | 0.0 | 0.0 | 0.00 | 0.00 | 0.00 | 69 | 1012.4 |
| 20260904211532 | 32 | 102 | 0.0 | 0.0 | 0.00 | 0.00 | 0.00 | 68 | 1012.0 |
| 20260904211003 | 32 | 102 | 0.0 | 0.0 | 0.00 | 0.00 | 0.00 | 67 | 1011.9 |
| 20260904210508 | 32 | 102 | 0.0 | 0.0 | 0.00 | 0.00 | 0.00 | 67 | 1011.8 |
| 20260904210033 | 32 | 102 | 0.0 | 0.0 | 0.00 | 0.00 | 0.00 | 67 | 1012.0 |
| 20260904205506 | 32 | 102 | 0.0 | 0.0 | 0.00 | 0.00 | 0.00 | 66 | 1011.9 |
| 20260904205010 | 33 | 102 | 0.0 | 0.0 | 0.00 | 0.00 | 0.00 | 64 | 1011.9 |
| 20260904204526 | 33 | 102 | 0.0 | 0.0 | 0.00 | 0.00 | 0.00 | 64 | 1011.9 |
| 20260904204003 | 33 | 102 | 0.0 | 0.0 | 0.00 | 0.00 | 0.00 | 64 | 1011.9 |
| 20260904203519 | 33 | 102 | 0.0 | 0.0 | 0.00 | 0.00 | 0.00 | 62 | 1011.7 |
| 20260904203042 | 33 | 102 | 0.0 | 0.0 | 0.00 | 0.00 | 0.00 | 65 | 1011.8 |
| 20260904202504 | 33 | 102 | 0.0 | 0.0 | 0.00 | 0.00 | 0.00 | 63 | 1011.7 |
| 20260904202012 | 33 | 41 | 0.0 | 0.0 | 0.00 | 0.00 | 0.00 | 62 | 1011.8 |
| 20260904201526 | 33 | 41 | 0.0 | 0.0 | 0.00 | 0.00 | 0.00 | 62 | 1011.7 |
| 20260904201009 | 33 | 41 | 0.0 | 0.0 | 0.00 | 0.00 | 0.00 | 62 | 1011.9 |
| 20260904200509 | 33 | 41 | 0.0 | 0.0 | 0.00 | 0.00 | 0.00 | 59 | 1012.0 |
| 20260904200028 | 34 | 41 | 0.0 | 0.0 | 0.00 | 0.00 | 0.00 | 59 | 1012.2 |
| 20260904195508 | 34 | 41 | 0.0 | 0.0 | 0.00 | 0.00 | 0.00 | 57 | 1012.2 |
| 20260904195011 | 34 | 41 | 0.0 | 3.2 | 0.00 | 0.00 | 0.00 | 55 | 1012.4 |
| 20260904194530 | 35 | 323 | 0.0 | 3.2 | 0.00 | 0.00 | 0.00 | 54 | 1012.5 |
| 20260904194007 | 35 | 12 | 0.0 | 3.2 | 0.00 | 0.00 | 0.00 | 54 | 1012.6 |
| 20260904193513 | 35 | 115 | 0.0 | 1.6 | 0.00 | 0.00 | 0.00 | 53 | 1012.5 |
| 20260904193032 | 35 | 9 | 0.0 | 4.8 | 0.00 | 0.00 | 0.00 | 55 | 1012.5 |
| 20260904192507 | 35 | 319 | 0.0 | 6.4 | 0.00 | 0.00 | 0.00 | 53 | 1012.7 |
| 20260904192012 | 35 | 14 | 3.2 | 6.4 | 0.00 | 0.00 | 0.00 | 51 | 1012.7 |
| 20260904191542 | 35 | 346 | 1.6 | 9.7 | 0.00 | 0.00 | 0.00 | 52 | 1012.8 |
| 20260904191010 | 36 | 113 | 1.6 | 9.7 | 0.00 | 0.00 | 0.00 | 50 | 1012.9 |
| 20260904190514 | 36 | 13 | 0.0 | 6.4 | 0.00 | 0.00 | 0.00 | 54 | 1012.9 |
| 20260904190045 | 36 | 329 | 1.6 | 6.4 | 0.00 | 0.00 | 0.00 | 53 | 1013.0 |
| 20260904185509 | 35 | 177 | 1.6 | 8.0 | 0.00 | 0.00 | 0.00 | 56 | 1013.1 |
| 20260904185013 | 35 | 282 | 1.6 | 8.0 | 0.00 | 0.00 | 0.00 | 55 | 1013.2 |
| 20260904184536 | 35 | 39 | 1.6 | 6.4 | 0.00 | 0.00 | 0.00 | 54 | 1013.4 |
| 20260904184013 | 35 | 355 | 1.6 | 8.0 | 0.00 | 0.00 | 0.00 | 54 | 1013.5 |
| 20260904183512 | 35 | 130 | 1.6 | 8.0 | 0.00 | 0.00 | 0.00 | 55 | 1013.5 |
| 20260904183033 | 35 | 5 | 1.6 | 6.4 | 0.00 | 0.00 | 0.00 | 55 | 1013.6 |
| 20260904182511 | 35 | 355 | 1.6 | 9.7 | 0.00 | 0.00 | 0.00 | 54 | 1013.7 |
| 20260904182023 | 35 | 336 | 3.2 | 9.7 | 0.00 | 0.00 | 0.00 | 54 | 1013.7 |
| 20260904181530 | 35 | 332 | 3.2 | 11.3 | 0.00 | 0.00 | 0.00 | 54 | 1013.8 |
| 20260904181012 | 35 | 325 | 3.2 | 11.3 | 0.00 | 0.00 | 0.00 | 54 | 1013.8 |
| 20260904180514 | 35 | 68 | 0.0 | 4.8 | 0.00 | 0.00 | 0.00 | 54 | 1014.0 |
| 20260904180033 | 35 | 125 | 0.0 | 8.0 | 0.00 | 0.00 | 0.00 | 53 | 1014.1 |
| 20260904175512 | 35 | 40 | 1.6 | 8.0 | 0.00 | 0.00 | 0.00 | 57 | 1014.1 |
| 20260904175013 | 35 | 319 | 0.0 | 6.4 | 0.00 | 0.00 | 0.00 | 54 | 1014.2 |
| 20260904174537 | 35 | 355 | 1.6 | 8.0 | 0.00 | 0.00 | 0.00 | 55 | 1014.3 |
| 20260904174014 | 35 | 327 | 1.6 | 8.0 | 0.00 | 0.00 | 0.00 | 55 | 1014.3 |
| 20260904173514 | 35 | 319 | 1.6 | 8.0 | 0.00 | 0.00 | 0.00 | 55 | 1014.4 |
| 20260904173040 | 35 | 5 | 1.6 | 8.0 | 0.00 | 0.00 | 0.00 | 55 | 1014.4 |
| 20260904172512 | 34 | 31 | 0.0 | 8.0 | 0.00 | 0.00 | 0.00 | 58 | 1014.4 |
| 20260904172014 | 34 | 324 | 1.6 | 6.4 | 0.00 | 0.00 | 0.00 | 58 | 1014.4 |
| 20260904171532 | 34 | 327 | 1.6 | 8.0 | 0.00 | 0.00 | 0.00 | 57 | 1014.4 |
| 20260904171012 | 34 | 44 | 1.6 | 9.7 | 0.00 | 0.00 | 0.00 | 57 | 1014.4 |
| 20260904170513 | 33 | 331 | 3.2 | 9.7 | 0.00 | 0.00 | 0.00 | 59 | 1014.4 |
| 20260904170044 | 35 | 48 | 1.6 | 8.0 | 0.00 | 0.00 | 0.00 | 56 | 1014.4 |
| 20260904165514 | 34 | 305 | 3.2 | 8.0 | 0.00 | 0.00 | 0.00 | 59 | 1014.3 |
| 20260904165019 | 34 | 13 | 1.6 | 8.0 | 0.00 | 0.00 | 0.00 | 56 | 1014.3 |
| 20260904164535 | 33 | 346 | 1.6 | 12.9 | 0.00 | 0.00 | 0.00 | 58 | 1014.4 |
| 20260904164015 | 33 | 37 | 1.6 | 12.9 | 0.00 | 0.00 | 0.00 | 58 | 1014.4 |
| 20260904163515 | 34 | 336 | 1.6 | 9.7 | 0.00 | 0.00 | 0.00 | 57 | 1014.5 |
| 20260904163032 | 34 | 352 | 1.6 | 9.7 | 0.00 | 0.00 | 0.00 | 58 | 1014.5 |
| 20260904162517 | 35 | 35 | 1.6 | 4.8 | 0.00 | 0.00 | 0.00 | 58 | 1014.6 |
| 20260904162014 | 33 | 181 | 1.6 | 4.8 | 0.00 | 0.00 | 0.00 | 60 | 1014.7 |
| 20260904161535 | 34 | 339 | 1.6 | 9.7 | 0.00 | 0.00 | 0.00 | 58 | 1014.7 |
| 20260904161013 | 33 | 347 | 1.6 | 9.7 | 0.00 | 0.00 | 0.00 | 61 | 1014.7 |
| 20260904160519 | 33 | 59 | 1.6 | 8.0 | 0.00 | 0.00 | 0.00 | 61 | 1014.9 |
| 20260904160033 | 33 | 69 | 3.2 | 14.5 | 0.00 | 0.00 | 0.00 | 61 | 1014.9 |
| 20260904155513 | 33 | 333 | 3.2 | 14.5 | 0.00 | 0.00 | 0.00 | 61 | 1015.1 |
| 20260904155017 | 33 | 58 | 3.2 | 9.7 | 0.00 | 0.00 | 0.00 | 62 | 1015.0 |
| 20260904154503 | 33 | 11 | 1.6 | 9.7 | 0.00 | 0.00 | 0.00 | 61 | 1015.0 |
| 20260904154002 | 33 | 5 | 1.6 | 14.5 | 0.00 | 0.00 | 0.00 | 61 | 1015.0 |
| 20260904153503 | 33 | 330 | 4.8 | 14.5 | 0.00 | 0.00 | 0.00 | 61 | 1015.1 |
| 20260904153005 | 33 | 5 | 3.2 | 8.0 | 0.00 | 0.00 | 0.00 | 62 | 1015.1 |
| 20260904152504 | 32 | 344 | 3.2 | 8.0 | 0.00 | 0.00 | 0.00 | 62 | 1015.1 |
| 20260904152002 | 32 | 57 | 3.2 | 6.4 | 0.00 | 0.00 | 0.00 | 64 | 1015.0 |
| 20260904151504 | 32 | 332 | 1.6 | 9.7 | 0.00 | 0.00 | 0.00 | 65 | 1015.0 |
| 20260904151003 | 32 | 17 | 3.2 | 9.7 | 0.00 | 0.00 | 0.00 | 65 | 1014.9 |
| 20260904150502 | 32 | 31 | 3.2 | 8.0 | 0.00 | 0.00 | 0.00 | 65 | 1014.9 |
| 20260904150014 | 32 | 5 | 3.2 | 8.0 | 0.00 | 0.00 | 0.00 | 67 | 1014.9 |
| 20260904145503 | 32 | 5 | 1.6 | 9.7 | 0.00 | 0.00 | 0.00 | 67 | 1014.9 |
| 20260904145004 | 32 | 343 | 0.0 | 9.7 | 0.00 | 0.00 | 0.00 | 68 | 1014.8 |
| 20260904144503 | 32 | 9 | 1.6 | 8.0 | 0.00 | 0.00 | 0.00 | 69 | 1014.9 |
| 20260904144007 | 32 | 331 | 3.2 | 8.0 | 0.00 | 0.00 | 0.00 | 68 | 1014.8 |
| 20260904143509 | 31 | 162 | 0.0 | 4.8 | 0.00 | 0.00 | 0.00 | 70 | 1014.7 |
| 20260904143009 | 31 | 360 | 0.0 | 4.8 | 0.00 | 0.00 | 0.00 | 71 | 1014.8 |
| 20260904142504 | 31 | 5 | 1.6 | 6.4 | 0.00 | 0.00 | 0.00 | 71 | 1014.7 |
| 20260904142004 | 30 | 16 | 1.6 | 6.4 | 0.00 | 0.00 | 0.00 | 72 | 1014.6 |
| 20260904141506 | 30 | 12 | 0.0 | 4.8 | 0.00 | 0.00 | 0.00 | 73 | 1014.6 |
| 20260904141006 | 30 | 28 | 0.0 | 9.7 | 0.00 | 0.00 | 0.00 | 72 | 1014.7 |
| 20260904140503 | 30 | 88 | 0.0 | 9.7 | 0.00 | 0.00 | 0.00 | 73 | 1014.6 |
| 20260904140004 | 30 | 101 | 0.0 | 4.8 | 0.00 | 0.00 | 0.00 | 73 | 1014.6 |
| 20260904135503 | 30 | 83 | 0.0 | 4.8 | 0.00 | 0.00 | 0.00 | 75 | 1014.6 |
| 20260904135005 | 29 | 18 | 1.6 | 4.8 | 0.00 | 0.00 | 0.00 | 76 | 1014.4 |
| 20260904134505 | 29 | 87 | 0.0 | 4.8 | 0.00 | 0.00 | 0.00 | 76 | 1014.4 |
| 20260904134001 | 28 | 348 | 3.2 | 4.8 | 0.00 | 0.00 | 0.00 | 76 | 1014.4 |
| 20260904133502 | 28 | 11 | 1.6 | 6.4 | 0.00 | 0.00 | 0.00 | 77 | 1014.4 |
| 20260904133009 | 28 | 360 | 1.6 | 6.4 | 0.00 | 0.00 | 0.00 | 77 | 1014.4 |
| 20260904132508 | 28 | 319 | 3.2 | 6.4 | 0.00 | 0.00 | 0.00 | 77 | 1014.3 |
| 20260904132007 | 28 | 21 | 0.0 | 4.8 | 0.00 | 0.00 | 0.00 | 78 | 1014.4 |
| 20260904131507 | 28 | 21 | 0.0 | 4.8 | 0.00 | 0.00 | 0.00 | 79 | 1014.4 |
| 20260904131003 | 28 | 18 | 0.0 | 4.8 | 0.00 | 0.00 | 0.00 | 79 | 1014.5 |
| 20260904130506 | 27 | 151 | 0.0 | 6.4 | 0.00 | 0.00 | 0.00 | 80 | 1014.5 |
| 20260904130008 | 27 | 5 | 0.0 | 6.4 | 0.00 | 0.00 | 0.00 | 80 | 1014.6 |
| 20260904125504 | 27 | 355 | 1.6 | 6.4 | 0.00 | 0.00 | 0.00 | 81 | 1014.7 |
| 20260904125005 | 27 | 5 | 0.0 | 4.8 | 0.00 | 0.00 | 0.00 | 81 | 1014.6 |
| 20260904124509 | 27 | 26 | 0.0 | 4.8 | 0.00 | 0.00 | 0.00 | 81 | 1014.7 |
| 20260904124007 | 27 | 41 | 0.0 | 4.8 | 0.00 | 0.00 | 0.00 | 81 | 1014.6 |
| 20260904123506 | 27 | 194 | 0.0 | 4.8 | 0.00 | 0.00 | 0.00 | 83 | 1014.6 |
| 20260904123007 | 26 | 186 | 1.6 | 4.8 | 0.00 | 0.00 | 0.00 | 83 | 1014.7 |
| 20260904122508 | 26 | 84 | 0.0 | 4.8 | 0.00 | 0.00 | 0.00 | 83 | 1014.7 |
| 20260904122006 | 26 | 13 | 0.0 | 3.2 | 0.00 | 0.00 | 0.00 | 83 | 1014.9 |
| 20260904121509 | 26 | 349 | 0.0 | 3.2 | 0.00 | 0.00 | 0.00 | 84 | 1014.9 |
| 20260904121006 | 26 | 355 | 0.0 | 0.0 | 0.00 | 0.00 | 0.00 | 85 | 1014.8 |
| 20260904120507 | 25 | 56 | 0.0 | 3.2 | 0.00 | 0.00 | 0.00 | 86 | 1014.7 |
| 20260904120012 | 25 | 101 | 0.0 | 4.8 | 0.00 | 0.00 | 0.00 | 88 | 1014.7 |
| 20260904115508 | 25 | 116 | 0.0 | 4.8 | 0.00 | 0.00 | 0.00 | 89 | 1014.7 |
| 20260904115008 | 24 | 50 | 0.0 | 3.2 | 0.00 | 0.00 | 0.00 | 91 | 1014.6 |
| 20260904114515 | 24 | 50 | 0.0 | 4.8 | 0.00 | 0.00 | 0.00 | 92 | 1014.7 |
| 20260904114008 | 23 | 50 | 0.0 | 4.8 | 0.00 | 0.00 | 0.00 | 93 | 1014.6 |
| 20260904113505 | 23 | 5 | 0.0 | 0.0 | 0.00 | 0.00 | 0.00 | 94 | 1014.6 |
| 20260904113022 | 23 | 350 | 0.0 | 0.0 | 0.00 | 0.00 | 0.00 | 94 | 1014.5 |
| 20260904112507 | 23 | 350 | 0.0 | 0.0 | 0.00 | 0.00 | 0.00 | 94 | 1014.6 |
| 20260904112009 | 23 | 350 | 0.0 | 0.0 | 0.00 | 0.00 | 0.00 | 94 | 1014.7 |
| 20260904111510 | 23 | 350 | 0.0 | 0.0 | 0.00 | 0.00 | 0.00 | 93 | 1014.6 |
| 20260904111008 | 23 | 350 | 0.0 | 0.0 | 0.00 | 0.00 | 0.00 | 93 | 1014.6 |
| 20260904110506 | 23 | 350 | 0.0 | 0.0 | 0.00 | 0.00 | 0.00 | 93 | 1014.6 |
| 20260904110012 | 23 | 350 | 0.0 | 0.0 | 0.00 | 0.00 | 0.00 | 93 | 1014.6 |
| 20260904105510 | 23 | 350 | 0.0 | 0.0 | 0.00 | 0.00 | 0.00 | 93 | 1014.6 |
| 20260904105008 | 23 | 350 | 0.0 | 0.0 | 0.00 | 0.00 | 0.00 | 93 | 1014.6 |
| 20260904104510 | 24 | 350 | 0.0 | 0.0 | 0.00 | 0.00 | 0.00 | 93 | 1014.6 |
| 20260904104010 | 24 | 350 | 0.0 | 0.0 | 0.00 | 0.00 | 0.00 | 92 | 1014.5 |
| 20260904103509 | 24 | 350 | 0.0 | 0.0 | 0.00 | 0.00 | 0.00 | 92 | 1014.4 |
| 20260904103012 | 24 | 350 | 0.0 | 0.0 | 0.00 | 0.00 | 0.00 | 92 | 1014.4 |
| 20260904102507 | 24 | 350 | 0.0 | 0.0 | 0.00 | 0.00 | 0.00 | 92 | 1014.4 |
| 20260904102008 | 24 | 350 | 0.0 | 0.0 | 0.00 | 0.00 | 0.00 | 92 | 1014.3 |
| 20260904101512 | 24 | 350 | 0.0 | 0.0 | 0.00 | 0.00 | 0.00 | 92 | 1014.4 |
| 20260904101007 | 24 | 350 | 0.0 | 0.0 | 0.00 | 0.00 | 0.00 | 92 | 1014.4 |
| 20260904100507 | 24 | 350 | 0.0 | 0.0 | 0.00 | 0.00 | 0.00 | 92 | 1014.4 |
| 20260904100014 | 24 | 350 | 0.0 | 0.0 | 0.00 | 0.00 | 0.00 | 92 | 1014.4 |
| 20260904095509 | 24 | 350 | 0.0 | 0.0 | 0.00 | 0.00 | 0.00 | 92 | 1014.4 |
| 20260904095012 | 24 | 350 | 0.0 | 0.0 | 0.00 | 0.00 | 0.00 | 92 | 1014.3 |
| 20260904094525 | 24 | 350 | 0.0 | 0.0 | 0.00 | 0.00 | 0.00 | 92 | 1014.5 |
| 20260904094011 | 24 | 350 | 0.0 | 0.0 | 0.00 | 0.00 | 0.00 | 91 | 1014.4 |
| 20260904093509 | 24 | 350 | 0.0 | 0.0 | 0.00 | 0.00 | 0.00 | 91 | 1014.5 |
| 20260904093013 | 24 | 350 | 0.0 | 0.0 | 0.00 | 0.00 | 0.00 | 91 | 1014.6 |
| 20260904092510 | 25 | 350 | 0.0 | 0.0 | 0.00 | 0.00 | 0.00 | 91 | 1014.6 |
| 20260904092010 | 25 | 350 | 0.0 | 0.0 | 0.00 | 0.00 | 0.00 | 90 | 1014.7 |
| 20260904091516 | 25 | 350 | 0.0 | 0.0 | 0.00 | 0.00 | 0.00 | 90 | 1014.7 |
| 20260904091013 | 25 | 350 | 0.0 | 0.0 | 0.00 | 0.00 | 0.00 | 90 | 1014.9 |
| 20260904090509 | 25 | 350 | 0.0 | 0.0 | 0.00 | 0.00 | 0.00 | 90 | 1014.8 |
| 20260904090017 | 25 | 350 | 0.0 | 0.0 | 0.00 | 0.00 | 0.00 | 89 | 1014.7 |
| 20260904085515 | 25 | 350 | 0.0 | 0.0 | 0.00 | 0.00 | 0.00 | 89 | 1014.7 |
| 20260904085009 | 25 | 350 | 0.0 | 0.0 | 0.00 | 0.00 | 0.00 | 89 | 1014.6 |
| 20260904084518 | 25 | 350 | 0.0 | 0.0 | 0.00 | 0.00 | 0.00 | 88 | 1014.6 |
| 20260904084012 | 25 | 350 | 0.0 | 4.8 | 0.00 | 0.00 | 0.00 | 88 | 1014.5 |
| 20260904083512 | 25 | 350 | 0.0 | 4.8 | 0.00 | 0.00 | 0.00 | 87 | 1014.5 |
| 20260904083018 | 25 | 348 | 0.0 | 4.8 | 0.00 | 0.00 | 0.00 | 87 | 1014.4 |
| 20260904082512 | 25 | 306 | 0.0 | 3.2 | 0.00 | 0.00 | 0.00 | 88 | 1014.3 |
| 20260904082010 | 25 | 120 | 0.0 | 3.2 | 0.00 | 0.00 | 0.00 | 87 | 1014.2 |
| 20260904081519 | 25 | 114 | 0.0 | 0.0 | 0.00 | 0.00 | 0.00 | 87 | 1014.2 |
| 20260904081012 | 25 | 114 | 0.0 | 0.0 | 0.00 | 0.00 | 0.00 | 87 | 1014.4 |
| 20260904080511 | 25 | 114 | 0.0 | 3.2 | 0.00 | 0.00 | 0.00 | 87 | 1014.2 |
| 20260904080020 | 25 | 114 | 0.0 | 3.2 | 0.00 | 0.00 | 0.00 | 87 | 1014.3 |
| 20260904075515 | 26 | 114 | 0.0 | 3.2 | 0.00 | 0.00 | 0.00 | 86 | 1014.2 |
| 20260904075014 | 26 | 123 | 0.0 | 1.6 | 0.00 | 0.00 | 0.00 | 87 | 1014.1 |
| 20260904074517 | 26 | 123 | 0.0 | 1.6 | 0.00 | 0.00 | 0.00 | 86 | 1014.0 |
| 20260904074017 | 26 | 123 | 0.0 | 1.6 | 0.00 | 0.00 | 0.00 | 86 | 1013.8 |
| 20260904073516 | 26 | 123 | 0.0 | 1.6 | 0.00 | 0.00 | 0.00 | 86 | 1013.9 |
| 20260904073020 | 26 | 156 | 0.0 | 0.0 | 0.00 | 0.00 | 0.00 | 86 | 1013.9 |
| 20260904072511 | 26 | 155 | 0.0 | 0.0 | 0.00 | 0.00 | 0.00 | 86 | 1013.9 |
| 20260904072013 | 26 | 155 | 0.0 | 0.0 | 0.00 | 0.00 | 0.00 | 86 | 1013.9 |
| 20260904071521 | 26 | 156 | 0.0 | 0.0 | 0.00 | 0.00 | 0.00 | 86 | 1013.9 |
| 20260904071015 | 26 | 155 | 0.0 | 0.0 | 0.00 | 0.00 | 0.00 | 85 | 1014.0 |
| 20260904070517 | 26 | 63 | 0.0 | 0.0 | 0.00 | 0.00 | 0.00 | 85 | 1014.1 |
| 20260904070023 | 26 | 63 | 0.0 | 0.0 | 0.00 | 0.00 | 0.00 | 84 | 1014.1 |
| 20260904065518 | 26 | 63 | 0.0 | 0.0 | 0.00 | 0.00 | 0.00 | 84 | 1014.2 |